Regional Weather Roundup
Issued by NWS

Home | Current Version | Previous Version | Text Only | Print | Product List | Glossary Off
Versions: 1 2 3 4 5 6 7 8 9 10 11 12 13 14 15 16 17 18 19 20 21 22 23 24 25 26 27 28 29 30 31 32 33 34 35 36 37 38 39 40 41 42 43 44 45 46 47 48 49 50

000
ASUS43 KOAX 210010
RWRNE

WEATHER ROUNDUP FOR NEBRASKA
NATIONAL WEATHER SERVICE OMAHA NE
600 PM CST SAT JAN 20 2018

NOTES: SATELLITE DATA IS BEING USED TO AUGMENT CLOUD COVER ABOVE
       12000 FEET.
       "FAIR" INDICATES FEW OR NO CLOUDS BELOW 12,000 FEET WITH NO
       SIGNIFICANT WEATHER AND/OR OBSTRUCTIONS TO VISIBILITY.


NEZ001>004-019>022-054>056-210100-
NEBRASKA PANHANDLE

CITY           SKY/WX    TMP DP  RH WIND       PRES   REMARKS
SCOTTSBLUFF    CLOUDY    34  31  88 E8        29.87R WCI  27
6HR MIN TEMP:  35; 6HR MAX TEMP:  36;

ALLIANCE       CLOUDY    32  30  92 N7        29.87R WCI  26
6HR MIN TEMP:  31; 6HR MAX TEMP:  33;

CHADRON        CLOUDY    32  31  96 NE12      29.92S WCI  23
6HR MIN TEMP:  32; 6HR MAX TEMP:  36; 6HR PCP: TRACE;

GORDON         CLOUDY    34  32  92 NE12      29.90R WCI  25
6HR MIN TEMP:  34; 6HR MAX TEMP:  38;

KIMBALL        CLOUDY    31  30  96 NE9       29.83R WCI  23
SIDNEY         CLOUDY    32  29  88 N16       29.83R WCI  21
6HR MIN TEMP:  32; 6HR MAX TEMP:  38;

$$

NEZ057>060-069>072-079>082-210100-
SOUTHWEST NEBRASKA

CITY           SKY/WX    TMP DP  RH WIND       PRES   REMARKS
NORTH PLATTE   CLOUDY    37  28  70 N6        29.83R WCI  32
6HR MIN TEMP:  37; 6HR MAX TEMP:  48;

IMPERIAL       CLOUDY    37  30  75 NE12      29.80R WCI  29
6HR MIN TEMP:  37; 6HR MAX TEMP:  50;

LEXINGTON      CLOUDY    40  30  68 N6        29.81R
MCCOOK         CLOUDY    37  28  70 NE8       29.78R WCI  31
6HR MIN TEMP:  37; 6HR MAX TEMP:  51;

OGALLALA       CLOUDY    37  31  81 NE9       29.83R WCI  30
$$

NEZ005>010-023>029-035>040-094-210100-
NORTH CENTRAL NEBRASKA

CITY           SKY/WX    TMP DP  RH WIND       PRES   REMARKS
VALENTINE      CLOUDY    38  32  79 N7        29.91R WCI  33
6HR MIN TEMP:  38; 6HR MAX TEMP:  42;

AINSWORTH      CLOUDY    35  32  90 N10       29.90R WCI  27
BROKEN BOW     CLOUDY    38  30  73 N12       29.82R WCI  30
6HR MIN TEMP:  38; 6HR MAX TEMP:  47;

O`NEILL        CLOUDY    35  32  91 N6        29.88R WCI  30
ORD            CLOUDY    38  31  76 N9        29.83R WCI  31
6HR MIN TEMP:  37; 6HR MAX TEMP:  51;

THEDFORD       CLOUDY    36  32  85 N7        29.87R WCI  30
$$

NEZ041-046>049-061>064-073>077-083>087-210100-
SOUTH CENTRAL NEBRASKA

CITY           SKY/WX    TMP DP  RH WIND       PRES   REMARKS
GRAND ISLAND   CLOUDY    38  33  82 E8        29.81R WCI  32
6HR MIN TEMP:  37; 6HR MAX TEMP:  48;

AURORA         CLEAR     36  27  70 E6        29.81R WCI  31
HASTINGS       CLOUDY    40  34  79 SE7       29.80R
6HR MIN TEMP:  40; 6HR MAX TEMP:  48;

HEBRON         CLOUDY    43  39  86 CALM      29.81R
HOLDREGE       CLOUDY    35  32  88 NE6       29.80R WCI  30
KEARNEY        CLOUDY    38  33  82 NE7       29.81R WCI  33
YORK           CLOUDY    39  37  93 SE8       29.81S WCI  34
$$

NEZ011>018-030>034-042>045-210100-
NORTHEAST NEBRASKA

CITY           SKY/WX    TMP DP  RH WIND       PRES   REMARKS
NORFOLK        CLOUDY    50  31  48 N10       29.83R
6HR MIN TEMP:  47; 6HR MAX TEMP:  70;

ALBION         CLOUDY    40  32  71 N9        29.83R WCI  35
BLAIR          CLEAR     41  32  70 E6        29.84S
COLUMBUS       CLOUDY    41  31  67 E8        29.84R
FREMONT        CLOUDY    43  29  58 E5        29.84S
TEKAMAH        CLOUDY    39  28  64 SE7       29.84S WCI  34
6HR MIN TEMP:  39; 6HR MAX TEMP:  52;

WAYNE          CLOUDY    40  32  73 N12       29.84S WCI  33
$$

NEZ050>053-065>068-078-088>093-210100-
SOUTHEAST NEBRASKA

CITY           SKY/WX    TMP DP  RH WIND       PRES   REMARKS
LINCOLN        CLOUDY    44  38  79 E5        29.85R
6HR MIN TEMP:  41; 6HR MAX TEMP:  51;

OMAHA EPPLEY   PTCLDY    42  37  82 SE6       29.85R
6HR MIN TEMP:  41; 6HR MAX TEMP:  49;

BEATRICE       CLOUDY    42  40  90 NE6       29.82S
FALLS CITY     CLOUDY    46  41  82 SE5       29.84R
6HR MIN TEMP:  45; 6HR MAX TEMP:  52;

NEBRASKA CITY  CLOUDY    42  42  99 NE3       29.85R
PLATTSMOUTH    CLOUDY    42  40  92 E5        29.85R
$$

NEZ044-045-051>053-067-210100-
OMAHA AREA

CITY           SKY/WX    TMP DP  RH WIND       PRES   REMARKS
OMAHA EPPLEY   PTCLDY    42  37  82 SE6       29.85R
6HR MIN TEMP:  41; 6HR MAX TEMP:  49;

BLAIR          CLEAR     41  32  70 E6        29.84S
FREMONT        CLOUDY    43  29  58 E5        29.84S
MILLARD        CLOUDY    44  39  80 CALM      29.85R
OFFUTT AFB     CLOUDY    40  36  87 CALM      29.85R
PLATTSMOUTH    CLOUDY    42  40  92 E5        29.85R
WAHOO          FAIR      38  28  67 E5        29.84R WCI  34
$$




USA.gov is the U.S. government's official web portal to all federal, state and local government web resources and services.